Weather History for KGSO - November, 2012

Change the Weather History Date:

Friday, November 9, 2012

  Actual Average Record
Temperature  
Mean Temperature 50 °F 52 °F  
Max Temperature 65 °F 63 °F 82 °F (2005)
Min Temperature 35 °F 42 °F 18 °F (1976)
Degree Days  
Heating Degree Days 15 13  
Month to date heating degree days 164 104  
Since 1 July heating degree days 391 337  
Cooling Degree Days 0 0  
Month to date cooling degree days 0 0  
Year to date cooling degree days 1623 1480  
Moisture  
Dew Point 27 °F    
Average Humidity 47    
Maximum Humidity 70    
Minimum Humidity 23    
Precipitation  
Precipitation 0.00 in 0.10 in 3.30 in (1962)
Month to date precipitation T 0.97  
Year to date precipitation 33.82 37.08  
Sea Level Pressure  
Sea Level Pressure 30.20 in    
Wind  
Wind Speed 3 mph (West)    
Max Wind Speed 12 mph    
Max Gust Speed 15 mph    
Visibility 10 miles    
Events      
T = Trace of Precipitation, MM = Missing Value Source: NWS Daily Summary

Daily Weather History Graph

Daily Weather History Graph

Search for Another Location

Airport or City:

Trip Planner

Search our weather history database for the weather conditions in past years. The results will help you decide how hot, cold, wet, or windy it might be!

Date:

Astronomy

Nov. 09, 2012 Rise Set
Actual Time 6:50 AM EST 5:15 PM EST
Civil Twilight 6:23 AM EST 5:42 PM EST
Nautical Twilight 5:53 AM EST 6:13 PM EST
Astronomical Twilight 5:22 AM EST 6:43 PM EST
Moon 1:56 AM EST (11/9) 2:20 PM EST (11/9)
Length of Visible Light 11h 19m
Length of Day
10h 25m
Waning Crescent, 23% of the Moon is Illuminated
Nov 9
Waning Crescent
Nov 13
New
Nov 20
First Quarter
Nov 28
Full
Dec 6
Last Quarter

Hourly Weather History & Observations

Time (EST) Temp. Windchill Dew Point Humidity Pressure Visibility Wind Dir Wind Speed Gust Speed Precip Events Conditions
12:54 AM 42.1 °F - 21.9 °F 45% 30.13 in 10.0 mi Calm Calm - N/A   Clear
1:54 AM 41.0 °F 37.1 °F 24.1 °F 51% 30.14 in 10.0 mi NW 5.8 mph - N/A   Clear
2:54 AM 43.0 °F - 23.0 °F 45% 30.14 in 10.0 mi Calm Calm - N/A   Clear
3:54 AM 37.9 °F - 24.1 °F 57% 30.16 in 10.0 mi Calm Calm - N/A   Clear
4:54 AM 37.9 °F 32.7 °F 25.0 °F 60% 30.17 in 10.0 mi WNW 6.9 mph - N/A   Clear
5:54 AM 35.1 °F 28.6 °F 25.0 °F 67% 30.19 in 10.0 mi West 8.1 mph - N/A   Clear
6:54 AM 42.1 °F 39.2 °F 25.0 °F 51% 30.21 in 10.0 mi NNW 4.6 mph - N/A   Clear
7:54 AM 46.0 °F - 27.0 °F 47% 30.23 in 10.0 mi Calm Calm - N/A   Clear
8:54 AM 51.1 °F - 25.0 °F 36% 30.23 in 10.0 mi NW 5.8 mph - N/A   Clear
9:54 AM 55.9 °F - 25.0 °F 30% 30.25 in 10.0 mi NW 9.2 mph - N/A   Clear
10:54 AM 59.0 °F - 26.1 °F 28% 30.25 in 10.0 mi NNW 8.1 mph - N/A   Clear
11:54 AM 59.0 °F - 26.1 °F 28% 30.23 in 10.0 mi SW 3.5 mph - N/A   Clear
12:54 PM 62.1 °F - 24.1 °F 23% 30.20 in 10.0 mi Calm Calm - N/A   Clear
1:54 PM 64.9 °F - 26.1 °F 23% 30.19 in 10.0 mi North 5.8 mph - N/A   Clear
2:54 PM 64.9 °F - 26.1 °F 23% 30.18 in 10.0 mi Variable 3.5 mph - N/A   Clear
3:54 PM 64.0 °F - 26.1 °F 24% 30.18 in 10.0 mi Calm Calm - N/A   Clear
4:54 PM 61.0 °F - 27.0 °F 27% 30.18 in 10.0 mi SW 3.5 mph - N/A   Clear
5:54 PM 55.9 °F - 28.9 °F 36% 30.19 in 10.0 mi Calm Calm - N/A   Clear
6:54 PM 51.1 °F - 30.9 °F 46% 30.21 in 10.0 mi SSW 3.5 mph - N/A   Clear
7:54 PM 50.0 °F - 32.0 °F 50% 30.22 in 9.0 mi WSW 3.5 mph - N/A   Clear
8:54 PM 48.0 °F - 33.1 °F 56% 30.23 in 10.0 mi SW 3.5 mph - N/A   Clear
9:54 PM 46.9 °F - 33.1 °F 59% 30.24 in 9.0 mi Calm Calm - N/A   Clear
10:54 PM 43.0 °F - 33.1 °F 68% 30.24 in 9.0 mi Calm Calm - N/A   Clear
11:54 PM 44.1 °F 42.5 °F 34.0 °F 68% 30.24 in 9.0 mi SW 3.5 mph - N/A   Clear